Погода в Ян-Тиел-Бай

Кюрасао     12°06′34″N   68°56′03″W
темп.,
°C
ветер,
м/с
пор.,
м/с
влажн.,
%
обл.,
%
осадки,
мм/ч
давл.,
гПа
погр.,
м
5 декабря, вс
вс523:00+28в8107842 0.0 10131047
02:00+27в8107752 0.2 10121004
05:00+27в9107797 0.9 1012962
08:00+28в91177100 1.6 10141043
11:00+27в10117821 0.8 10151009
14:00+27вюв1011785 1.0 10121053
17:00+28в9118070 0.1 10111021
20:00+27в101278100 0.1 10121002
6 декабря, пн
пн623:00+27в10128070 0.0 10141042
02:00+27в1012795 0.1 10131127
05:00+27в1012785 0.2 10131114
08:00+27в1012796 1.1 10151055
11:00+27в9118083 0.8 10161011
14:00+28в9107839 1.3 1012997
17:00+27в911795 0.0 10111006
20:00+27всв911795 0.1 10131015
7 декабря, вт
вт723:00+27в911795 0.0 1014997
02:00+27в911765 0.6 1012993
05:00+27в810765 0.3 10121038
08:00+27в9117414 0.6 10131064
11:00+28в810785 0.3 10141043
14:00+28в910781 1.3 1011962
17:00+28в910770 0.9 10101004
20:00+27в811721 0.9 1011997
8 декабря, ср
ср823:00+27в9117270 0.0 1012988
02:00+27в8107823 0.3 1011916
05:00+27в897783 1.4 1011944
08:00+27в8107626 2.9 10131037
11:00+27в787688 0.4 1013914
14:00+27в77765 0.9 1011826
17:00+27всв78774 0.4 1010873
20:00+27всв79805 0.4 1011818
9 декабря, чт
чт923:00+27в810797 0.3 1012912
02:00+27в78815 2.1 1011673
05:00+26в68816 1.8 1011736
08:00+27в687998 3.6 1013791
11:00+27в677737 0.6 1014817
14:00+27в67775 1.1 1011840
17:00+27всв67785 0.5 1011695
20:00+27всв69810 1.0 1012678